Meteo pe oră la Bucureşti

Astăzi, 22 Iunie, Marţi

Timp Temperatura Precipitaţii Vânt Presiune Umiditate
00:00 +22°C° 0 mm 1 m/s 751 mmHg 81%
01:00 +21°C° 0 mm 1 m/s 751 mmHg 82%
02:00 +21°C° 0 mm 1 m/s 751 mmHg 83%
03:00 +21°C° 0 mm 1 m/s 751 mmHg 84%
04:00 +20°C° 0 mm 1 m/s 751 mmHg 85%
05:00 +20°C° 0 mm 1 m/s 751 mmHg 86%
06:00 +22°C° 0 mm 1 m/s 752 mmHg 81%
07:00 +23°C° 0 mm 1 m/s 752 mmHg 77%
08:00 +25°C° 0 mm 1 m/s 752 mmHg 71%
09:00 +26°C° 0 mm 1 m/s 752 mmHg 67%
10:00 +27°C° 0 mm 1 m/s 752 mmHg 63%
11:00 +28°C° 0 mm 2 m/s 752 mmHg 59%
12:00 +29°C° 0 mm 1 m/s 752 mmHg 56%
13:00 +30°C° 0 mm 1 m/s 752 mmHg 54%
14:00 +31°C° 0 mm 1 m/s 751 mmHg 51%
15:00 +31°C° 0 mm 1 m/s 751 mmHg 50%
16:00 +31°C° 0 mm 1 m/s 751 mmHg 50%
17:00 +31°C° 0 mm 1 m/s 751 mmHg 49%
18:00 +30°C° 0 mm 1 m/s 751 mmHg 54%
19:00 +28°C° 0 mm 1 m/s 751 mmHg 59%
20:00 +27°C° 0 mm 1 m/s 751 mmHg 64%
21:00 +26°C° 0.1 mm 1 m/s 751 mmHg 68%
22:00 +25°C° 0.1 mm 1 m/s 752 mmHg 71%
23:00 +24°C° 0.1 mm 1 m/s 752 mmHg 75%

Mâine, 23 Iunie, Miercuri

Timp Temperatura Precipitaţii Vânt Presiune Umiditate
00:00 +24°C° 0.2 mm 1 m/s 752 mmHg 77%
01:00 +23°C° 0.2 mm 1 m/s 752 mmHg 80%
02:00 +23°C° 0.2 mm 1 m/s 752 mmHg 82%
03:00 +23°C° 0.1 mm 2 m/s 752 mmHg 84%
04:00 +21°C° 0.1 mm 2 m/s 752 mmHg 86%
05:00 +21°C° 0.1 mm 2 m/s 752 mmHg 87%
06:00 +23°C° 0.1 mm 2 m/s 752 mmHg 83%
07:00 +25°C° 0.1 mm 2 m/s 753 mmHg 78%
08:00 +26°C° 0.1 mm 2 m/s 753 mmHg 74%
09:00 +28°C° 0 mm 2 m/s 753 mmHg 69%
10:00 +29°C° 0 mm 2 m/s 753 mmHg 64%
11:00 +31°C° 0 mm 1 m/s 753 mmHg 59%
12:00 +31°C° 0 mm 1 m/s 753 mmHg 55%
13:00 +32°C° 0 mm 1 m/s 753 mmHg 52%
14:00 +33°C° 0 mm 1 m/s 753 mmHg 48%
15:00 +33°C° 0 mm 1 m/s 753 mmHg 48%
16:00 +33°C° 0 mm 1 m/s 753 mmHg 49%
17:00 +31°C° 0 mm 0 m/s 753 mmHg 49%
18:00 +32°C° 0 mm 1 m/s 753 mmHg 54%
19:00 +30°C° 0 mm 1 m/s 753 mmHg 59%
20:00 +29°C° 0 mm 1 m/s 753 mmHg 64%
21:00 +28°C° 0.1 mm 1 m/s 753 mmHg 67%
22:00 +27°C° 0.1 mm 1 m/s 754 mmHg 69%
23:00 +27°C° 0.1 mm 1 m/s 754 mmHg 72%

Poimâine, 24 Iunie, Joi

Timp Temperatura Precipitaţii Vânt Presiune Umiditate
00:00 +26°C° 0.2 mm 1 m/s 754 mmHg 75%
01:00 +25°C° 0.2 mm 2 m/s 754 mmHg 79%
02:00 +24°C° 0.2 mm 2 m/s 754 mmHg 82%
03:00 +24°C° 0 mm 1 m/s 754 mmHg 83%
04:00 +24°C° 0 mm 1 m/s 754 mmHg 84%
05:00 +24°C° 0 mm 1 m/s 754 mmHg 85%
06:00 +25°C° 0 mm 1 m/s 754 mmHg 80%
07:00 +27°C° 0 mm 1 m/s 754 mmHg 75%
08:00 +28°C° 0 mm 1 m/s 754 mmHg 71%
09:00 +29°C° 0 mm 1 m/s 755 mmHg 66%
10:00 +31°C° 0 mm 1 m/s 755 mmHg 61%
11:00 +32°C° 0 mm 1 m/s 755 mmHg 56%
12:00 +33°C° 0 mm 1 m/s 755 mmHg 53%
13:00 +33°C° 0 mm 1 m/s 755 mmHg 50%
14:00 +34°C° 0 mm 1 m/s 755 mmHg 47%
15:00 +34°C° 0 mm 1 m/s 754 mmHg 48%
16:00 +34°C° 0 mm 1 m/s 754 mmHg 48%
17:00 +35°C° 0 mm 2 m/s 754 mmHg 49%
18:00 +32°C° 0 mm 2 m/s 754 mmHg 55%
19:00 +31°C° 0 mm 2 m/s 754 mmHg 62%
20:00 +29°C° 0 mm 2 m/s 754 mmHg 69%
21:00 +28°C° 0.1 mm 2 m/s 754 mmHg 70%
22:00 +28°C° 0.1 mm 2 m/s 754 mmHg 72%
23:00 +27°C° 0.1 mm 2 m/s 754 mmHg 73%

25 Iunie, Vineri

Timp Temperatura Precipitaţii Vânt Presiune Umiditate
00:00 +27°C° 0.1 mm 1 m/s 754 mmHg 75%
01:00 +26°C° 0.1 mm 1 m/s 754 mmHg 77%
02:00 +24°C° 0.1 mm 0 m/s 754 mmHg 78%
03:00 +23°C° 0 mm 0 m/s 754 mmHg 80%
04:00 +23°C° 0 mm 0 m/s 754 mmHg 81%
05:00 +23°C° 0 mm 0 m/s 754 mmHg 83%
06:00 +26°C° 0 mm 1 m/s 754 mmHg 78%
07:00 +28°C° 0 mm 1 m/s 754 mmHg 73%
08:00 +29°C° 0 mm 2 m/s 754 mmHg 69%
09:00 +31°C° 0 mm 1 m/s 754 mmHg 64%
10:00 +32°C° 0 mm 1 m/s 754 mmHg 59%
11:00 +33°C° 0 mm 1 m/s 754 mmHg 54%
12:00 +34°C° 0 mm 1 m/s 753 mmHg 51%
13:00 +35°C° 0 mm 1 m/s 753 mmHg 49%
14:00 +36°C° 0 mm 1 m/s 753 mmHg 46%
15:00 +35°C° 0.6 mm 3 m/s 753 mmHg 52%
16:00 +32°C° 0.6 mm 5 m/s 753 mmHg 58%
17:00 +29°C° 0.6 mm 6 m/s 753 mmHg 64%
18:00 +28°C° 0.4 mm 5 m/s 753 mmHg 67%
19:00 +27°C° 0.4 mm 3 m/s 752 mmHg 70%
20:00 +25°C° 0.4 mm 1 m/s 752 mmHg 72%
21:00 +25°C° 0.1 mm 2 m/s 753 mmHg 73%
22:00 +25°C° 0.1 mm 4 m/s 753 mmHg 73%
23:00 +23°C° 0.1 mm 5 m/s 754 mmHg 74%

26 Iunie, Sâmbătă

Timp Temperatura Precipitaţii Vânt Presiune Umiditate
00:00 +23°C° 0.1 mm 4 m/s 753 mmHg 76%
01:00 +22°C° 0.1 mm 3 m/s 753 mmHg 78%
02:00 +23°C° 0.1 mm 2 m/s 752 mmHg 80%
03:00 +21°C° 0 mm 2 m/s 752 mmHg 81%
04:00 +21°C° 0 mm 3 m/s 752 mmHg 82%
05:00 +21°C° 0 mm 3 m/s 752 mmHg 83%
06:00 +22°C° 0 mm 3 m/s 752 mmHg 79%
07:00 +24°C° 0 mm 3 m/s 752 mmHg 75%
08:00 +26°C° 0 mm 2 m/s 753 mmHg 71%
09:00 +27°C° 0 mm 2 m/s 753 mmHg 66%
10:00 +29°C° 0 mm 2 m/s 753 mmHg 61%
11:00 +30°C° 0 mm 2 m/s 753 mmHg 56%
12:00 +31°C° 0 mm 2 m/s 752 mmHg 54%
13:00 +32°C° 0 mm 2 m/s 752 mmHg 52%
14:00 +33°C° 0 mm 1 m/s 752 mmHg 50%
15:00 +34°C° 0 mm 2 m/s 752 mmHg 50%
16:00 +34°C° 0 mm 2 m/s 751 mmHg 51%
17:00 +34°C° 0 mm 2 m/s 751 mmHg 51%
18:00 +30°C° 0.5 mm 2 m/s 751 mmHg 60%
19:00 +27°C° 0.5 mm 3 m/s 751 mmHg 68%
20:00 +25°C° 0.5 mm 3 m/s 752 mmHg 76%
21:00 +24°C° 0.4 mm 2 m/s 752 mmHg 78%
22:00 +23°C° 0.4 mm 2 m/s 752 mmHg 80%
23:00 +21°C° 0.4 mm 2 m/s 752 mmHg 82%

27 Iunie, Duminică

Timp Temperatura Precipitaţii Vânt Presiune Umiditate
00:00 +22°C° 0.2 mm 1 m/s 752 mmHg 82%
01:00 +22°C° 0.2 mm 1 m/s 752 mmHg 81%
02:00 +22°C° 0.2 mm 1 m/s 752 mmHg 80%
03:00 +22°C° 0.6 mm 1 m/s 753 mmHg 83%
04:00 +21°C° 0.6 mm 1 m/s 753 mmHg 86%
05:00 +21°C° 0.6 mm 1 m/s 753 mmHg 89%
06:00 +22°C° 0.2 mm 1 m/s 753 mmHg 84%
07:00 +24°C° 0.2 mm 1 m/s 754 mmHg 79%
08:00 +25°C° 0.2 mm 1 m/s 754 mmHg 73%
09:00 +26°C° 0 mm 2 m/s 754 mmHg 69%
10:00 +28°C° 0 mm 2 m/s 754 mmHg 64%
11:00 +29°C° 0 mm 2 m/s 754 mmHg 60%
12:00 +30°C° 0 mm 2 m/s 754 mmHg 58%
13:00 +30°C° 0 mm 2 m/s 753 mmHg 56%
14:00 +31°C° 0 mm 2 m/s 753 mmHg 54%
15:00 +31°C° 0 mm 2 m/s 753 mmHg 54%
16:00 +31°C° 0 mm 2 m/s 753 mmHg 54%
17:00 +31°C° 0 mm 2 m/s 753 mmHg 54%
18:00 +30°C° 0.5 mm 2 m/s 753 mmHg 61%
19:00 +28°C° 0.5 mm 2 m/s 753 mmHg 68%
20:00 +26°C° 0.5 mm 2 m/s 754 mmHg 75%
21:00 +25°C° 1.1 mm 2 m/s 754 mmHg 79%
22:00 +24°C° 1.1 mm 2 m/s 754 mmHg 83%
23:00 +23°C° 1.1 mm 2 m/s 755 mmHg 87%
Arată mai mult

Formular de consimțământ

Meteoprog și furnizorii noștri de servicii pot stoca și accesa date personale, precum cookies, identificatori de dispozitiv sau alte tehnologii similare pe dispozitivul dumneavoastră și procesa astfel de date pentru a personaliza conținutul și reclamele, dar și pentru a oferi caracteristici de social media și pentru a analiza traficul.

  • Stocarea și/sau accesarea informațiilor pe dispozitivul dumneavoastră

    Cookies, identificatori de dispozitiv sau alte informații pot fi stocate sau accesate pe dispozitiv în scopurile indicate mai sus.

  • Reclame și conținut personalizat, evaluarea reclamelor și a conținutului, informații despre audiențe și dezvoltarea produselor

    Reclamele și conținutul pot fi personalizate pe baza unui profil. Pot fi adăugate date suplimentare pentru a personaliza mai bine reclamele și conținutul. Performanța reclamelor și conținutului poate fi măsurată. Pot fi obținute informații despre utilizatorii care au văzut reclamele și conținutul. Aceste date pot fi utilizate pentru a dezvolta sau îmbunătăți experiența utilizatorilor, sistemele și software-ul.

Dând clic pe ‘Sunt de acord’, permiteți utilizarea cookie-urilor menționate, a identificatorilor de dispozitiv, balizelor web sau altor tehnologii similare. Setările pot fi modificate din browser-ul dispozitivului dumneavoastră.

În anumite scopuri, interesele legitime pot prima asupra consimțământului. Puteți citi mai multe informații în acest sens în Politica privind Confidențialitatea Datelor și Cookie.